{"data":{"norad_id":63935,"intl_designator":"2025-098K","name":"STARLINK-34005","alt_names":[],"object_type":"PAYLOAD","status":"ACTIVE","operator":null,"country":"US","launch_date":"2025-05-13","launch_site_code":"AFWTR","launch_vehicle":null,"mission":null,"orbit_class":"UNKNOWN","rcs_meters":null,"size_class":null,"mass_kg":null,"dimensions":null,"purposes":["comms"],"wikipedia_slug":null,"has_3d_model":false,"image_url":null,"decayed_at":null,"tle_current":{"epoch":"2026-05-25T02:23:45.021696Z","epoch_age_seconds":56647,"freshness":"FRESH","line1":"1 63935U 25098K   26145.09982664  .00003088  00000+0  26647-3 0  9998","line2":"2 63935  70.0007  81.9675 0003142 267.9356  92.1443 14.98336188 58003","mean_motion":14.98336188,"eccentricity":0.0003142,"inclination_deg":70.0007,"raan_deg":81.9675,"arg_perigee_deg":267.9356,"mean_anomaly_deg":92.1443,"bstar":0.00026647,"rev_number":5800,"period_min":96.106602212026,"perigee_km":569.85301053686,"apogee_km":574.22049972459,"semimajor_km":6950.1737551307,"source":"CELESTRAK","updated_at":"2026-05-25T13:38:20.184365Z"}}}